Find Starlink 34326

NORAD ID: 64221 Int'l Des: 2025-117 Owner: SPXS Country: US Constellation: starlink operational
LEOCIRCULAR

Live Position

Loading 3D Globe...

About Starlink 34326

Description loading...

Upcoming Passes

Passes for default location (London). Set your location on the main map for personalized predictions.

Altitude History

Loading altitude history...

Two-Line Element Set

1 64221U 25117U 26106.75549140 .00011324 00000-0 39394-3 0 9993
2 64221 53.1582 222.7968 0001122 92.1076 268.0054 15.30194565 50388
Epoch: Apr 16, 2026 • Age: 11 hours

Current Status

Altitude 477.7 km
Velocity 7.63 km/s
Sub-Earth Point 37.29°N, 29.93°W
Launch Date May 31, 2025
Age 0.8 years
Type internet

Technical Details

Classification Payload
Mass 575.00 kg
Dry Mass 530.00 kg
Total Mass 575.00 kg
Length 0.30 m
Diameter 4.10 m
Span 29.00 m
Shape Box + pan
Manufacturer SPXS
Bus Type Starlink V2MO
Phase Status In Orbit
Owner/State SPXS/US

Most Searched